Time,TemperatureF,DewpointF,PressureIn,WindDirection,WindDirectionDegrees,WindSpeedMPH,WindSpeedGustMPH,Humidity,HourlyPrecipIn,Conditions,Clouds,dailyrainin,SoftwareType,DateUTC
2013-07-26 00:02:00,51.2,48.7,30.08,NE,47,0.0,0.0,91,0.00,,,0.00,Wunderground v.1.15,2013-07-26 04:02:00,
2013-07-26 00:04:00,51.1,48.6,30.08,NE,47,0.0,0.0,91,0.00,,,0.00,Wunderground v.1.15,2013-07-26 04:04:00,
2013-07-26 00:10:00,50.9,48.4,30.08,NE,47,0.0,0.0,91,0.00,,,0.00,Wunderground v.1.15,2013-07-26 04:10:00,
2013-07-26 00:12:00,50.8,48.3,30.08,NE,47,0.0,0.0,91,0.00,,,0.00,Wunderground v.1.15,2013-07-26 04:12:00,
2013-07-26 00:16:00,50.8,48.3,30.08,NE,47,0.0,0.0,91,0.00,,,0.00,Wunderground v.1.15,2013-07-26 04:16:00,
2013-07-26 00:22:00,50.8,48.6,30.08,NE,47,0.0,0.0,92,0.00,,,0.00,Wunderground v.1.15,2013-07-26 04:22:00,
2013-07-26 00:28:00,50.8,48.6,30.08,NE,47,0.0,0.0,92,0.00,,,0.00,Wunderground v.1.15,2013-07-26 04:28:00,
2013-07-26 00:34:00,50.6,48.4,30.08,NE,47,0.0,0.0,92,0.00,,,0.00,Wunderground v.1.15,2013-07-26 04:34:00,
2013-07-26 00:40:00,50.5,48.3,30.08,NE,47,0.0,0.0,92,0.00,,,0.00,Wunderground v.1.15,2013-07-26 04:40:00,
2013-07-26 00:46:00,50.4,48.2,30.08,NE,47,0.0,0.0,92,0.00,,,0.00,Wunderground v.1.15,2013-07-26 04:46:00,
2013-07-26 00:52:00,50.5,48.3,30.08,NE,47,0.0,0.0,92,0.00,,,0.00,Wunderground v.1.15,2013-07-26 04:52:00,
2013-07-26 00:58:00,50.6,48.7,30.08,NE,47,0.0,0.0,93,0.00,,,0.00,Wunderground v.1.15,2013-07-26 04:58:00,
2013-07-26 01:04:00,50.5,48.6,30.07,NE,47,0.0,0.0,93,0.00,,,0.00,Wunderground v.1.15,2013-07-26 05:04:00,
2013-07-26 01:10:00,50.5,48.6,30.07,NE,47,0.0,0.0,93,0.00,,,0.00,Wunderground v.1.15,2013-07-26 05:10:00,
2013-07-26 01:16:00,50.2,48.0,30.07,NE,47,0.0,0.0,92,0.00,,,0.00,Wunderground v.1.15,2013-07-26 05:16:00,
2013-07-26 01:22:00,49.8,47.6,30.07,NE,47,0.0,0.0,92,0.00,,,0.00,Wunderground v.1.15,2013-07-26 05:22:00,
2013-07-26 01:28:00,49.9,47.7,30.07,NE,47,0.0,0.0,92,0.00,,,0.00,Wunderground v.1.15,2013-07-26 05:28:00,
2013-07-26 01:34:00,49.8,47.6,30.07,NE,47,0.0,0.0,92,0.00,,,0.00,Wunderground v.1.15,2013-07-26 05:34:00,
2013-07-26 01:40:00,49.6,47.4,30.07,NE,47,0.0,0.0,92,0.00,,,0.00,Wunderground v.1.15,2013-07-26 05:40:00,
2013-07-26 01:46:00,49.4,47.5,30.07,NE,47,0.0,0.0,93,0.00,,,0.00,Wunderground v.1.15,2013-07-26 05:46:00,
2013-07-26 01:52:00,49.2,47.3,30.06,NE,47,0.0,0.0,93,0.00,,,0.00,Wunderground v.1.15,2013-07-26 05:52:00,
2013-07-26 01:58:00,48.9,46.7,30.06,NE,47,0.0,0.0,92,0.00,,,0.00,Wunderground v.1.15,2013-07-26 05:58:00,
2013-07-26 02:04:00,48.6,46.4,30.06,NE,47,0.0,0.0,92,0.00,,,0.00,Wunderground v.1.15,2013-07-26 06:04:00,
2013-07-26 02:10:00,48.7,46.8,30.06,NE,47,0.0,0.0,93,0.00,,,0.00,Wunderground v.1.15,2013-07-26 06:10:00,
2013-07-26 02:16:00,48.9,47.0,30.06,NE,47,0.0,0.0,93,0.00,,,0.00,Wunderground v.1.15,2013-07-26 06:16:00,
2013-07-26 02:22:00,48.8,46.9,30.06,NE,47,0.0,0.0,93,0.00,,,0.00,Wunderground v.1.15,2013-07-26 06:22:00,
2013-07-26 02:28:00,48.7,46.8,30.06,NE,47,0.0,0.0,93,0.00,,,0.00,Wunderground v.1.15,2013-07-26 06:28:00,
2013-07-26 02:34:00,48.8,46.9,30.06,NE,47,0.0,0.0,93,0.00,,,0.00,Wunderground v.1.15,2013-07-26 06:34:00,
2013-07-26 02:40:00,48.8,46.9,30.06,NE,47,0.0,0.0,93,0.00,,,0.00,Wunderground v.1.15,2013-07-26 06:40:00,
2013-07-26 02:46:00,48.2,46.3,30.06,NE,47,0.0,0.0,93,0.00,,,0.00,Wunderground v.1.15,2013-07-26 06:46:00,
2013-07-26 02:52:00,47.7,45.8,30.06,NE,47,0.0,0.0,93,0.00,,,0.00,Wunderground v.1.15,2013-07-26 06:52:00,
2013-07-26 02:58:00,47.8,45.9,30.07,NE,47,0.0,0.0,93,0.00,,,0.00,Wunderground v.1.15,2013-07-26 06:58:00,
2013-07-26 03:04:00,47.7,45.8,30.07,NE,47,0.0,0.0,93,0.00,,,0.00,Wunderground v.1.15,2013-07-26 07:04:00,
2013-07-26 03:10:00,47.7,45.8,30.07,NE,47,0.0,0.0,93,0.00,,,0.00,Wunderground v.1.15,2013-07-26 07:10:00,
2013-07-26 03:16:00,48.0,46.4,30.07,NE,47,0.0,0.0,94,0.00,,,0.00,Wunderground v.1.15,2013-07-26 07:16:00,
2013-07-26 03:22:00,47.9,46.3,30.08,NE,47,0.0,0.0,94,0.00,,,0.00,Wunderground v.1.15,2013-07-26 07:22:00,
2013-07-26 03:28:00,47.7,45.8,30.08,NE,47,0.0,0.0,93,0.00,,,0.00,Wunderground v.1.15,2013-07-26 07:28:00,
2013-07-26 03:34:00,47.6,45.7,30.08,NE,47,0.0,0.0,93,0.00,,,0.00,Wunderground v.1.15,2013-07-26 07:34:00,
2013-07-26 03:40:00,47.7,45.8,30.08,NE,47,0.0,0.0,93,0.00,,,0.00,Wunderground v.1.15,2013-07-26 07:40:00,
2013-07-26 03:46:00,47.7,46.1,30.08,NE,47,0.0,0.0,94,0.00,,,0.00,Wunderground v.1.15,2013-07-26 07:46:00,
2013-07-26 03:52:00,47.5,45.6,30.08,NE,47,0.0,0.0,93,0.00,,,0.00,Wunderground v.1.15,2013-07-26 07:52:00,
2013-07-26 03:58:00,47.3,45.4,30.08,NE,47,0.0,0.0,93,0.00,,,0.00,Wunderground v.1.15,2013-07-26 07:58:00,
2013-07-26 04:04:00,47.2,45.6,30.08,NE,47,0.0,0.0,94,0.00,,,0.00,Wunderground v.1.15,2013-07-26 08:04:00,
2013-07-26 04:10:00,47.4,45.8,30.08,NE,47,0.0,0.0,94,0.00,,,0.00,Wunderground v.1.15,2013-07-26 08:10:00,
2013-07-26 04:16:00,47.5,45.9,30.08,NE,47,0.0,0.0,94,0.00,,,0.00,Wunderground v.1.15,2013-07-26 08:16:00,
2013-07-26 04:22:00,47.3,45.7,30.08,NE,47,0.0,0.0,94,0.00,,,0.00,Wunderground v.1.15,2013-07-26 08:22:00,
2013-07-26 04:28:00,47.0,45.1,30.08,NE,47,0.0,0.0,93,0.00,,,0.00,Wunderground v.1.15,2013-07-26 08:28:00,
2013-07-26 04:34:00,46.9,45.0,30.08,NE,47,0.0,0.0,93,0.00,,,0.00,Wunderground v.1.15,2013-07-26 08:34:00,
2013-07-26 04:40:00,46.8,45.2,30.08,NE,47,0.0,0.0,94,0.00,,,0.00,Wunderground v.1.15,2013-07-26 08:40:00,
2013-07-26 04:46:00,46.5,44.9,30.08,NE,47,0.0,0.0,94,0.00,,,0.00,Wunderground v.1.15,2013-07-26 08:46:00,
2013-07-26 04:52:00,46.3,44.4,30.08,NE,47,0.0,0.0,93,0.00,,,0.00,Wunderground v.1.15,2013-07-26 08:52:00,
2013-07-26 04:58:00,46.2,44.6,30.08,NE,47,0.0,0.0,94,0.00,,,0.00,Wunderground v.1.15,2013-07-26 08:58:00,
2013-07-26 05:04:00,46.3,44.7,30.08,NE,47,0.0,0.0,94,0.00,,,0.00,Wunderground v.1.15,2013-07-26 09:04:00,
2013-07-26 05:10:00,46.3,44.7,30.08,NE,47,0.0,0.0,94,0.00,,,0.00,Wunderground v.1.15,2013-07-26 09:10:00,
2013-07-26 05:16:00,46.3,44.7,30.08,NE,47,0.0,0.0,94,0.00,,,0.00,Wunderground v.1.15,2013-07-26 09:16:00,
2013-07-26 05:22:00,46.4,44.8,30.08,NE,47,0.0,0.0,94,0.00,,,0.00,Wunderground v.1.15,2013-07-26 09:22:00,
2013-07-26 05:28:00,46.4,44.8,30.07,NE,47,0.0,0.0,94,0.00,,,0.00,Wunderground v.1.15,2013-07-26 09:28:00,
2013-07-26 05:34:00,46.3,44.7,30.08,NE,47,0.0,0.0,94,0.00,,,0.00,Wunderground v.1.15,2013-07-26 09:34:00,
2013-07-26 05:40:00,46.3,44.7,30.08,NE,47,0.0,0.0,94,0.00,,,0.00,Wunderground v.1.15,2013-07-26 09:40:00,
2013-07-26 05:46:00,46.1,44.5,30.08,NE,47,0.0,0.0,94,0.00,,,0.00,Wunderground v.1.15,2013-07-26 09:46:00,
2013-07-26 05:52:00,46.0,44.4,30.08,NE,47,0.0,2.0,94,0.00,,,0.00,Wunderground v.1.15,2013-07-26 09:52:00,
2013-07-26 05:58:00,46.0,44.4,30.08,NE,47,1.0,2.0,94,0.00,,,0.00,Wunderground v.1.15,2013-07-26 09:58:00,
2013-07-26 06:04:00,46.1,44.5,30.08,NE,47,0.0,1.0,94,0.00,,,0.00,Wunderground v.1.15,2013-07-26 10:04:00,
2013-07-26 06:10:00,46.0,44.4,30.08,NE,47,0.0,0.0,94,0.00,,,0.00,Wunderground v.1.15,2013-07-26 10:10:00,
2013-07-26 06:16:00,45.9,44.3,30.08,NE,47,0.0,0.0,94,0.00,,,0.00,Wunderground v.1.15,2013-07-26 10:16:00,
2013-07-26 06:22:00,45.9,44.3,30.08,NE,47,0.0,0.0,94,0.00,,,0.00,Wunderground v.1.15,2013-07-26 10:22:00,
2013-07-26 06:28:00,45.8,44.2,30.08,NE,47,0.0,0.0,94,0.00,,,0.00,Wunderground v.1.15,2013-07-26 10:28:00,
2013-07-26 06:34:00,46.0,44.4,30.08,NE,47,0.0,0.0,94,0.00,,,0.00,Wunderground v.1.15,2013-07-26 10:34:00,
2013-07-26 06:40:00,47.0,45.6,30.09,NE,47,0.0,0.0,95,0.00,,,0.00,Wunderground v.1.15,2013-07-26 10:40:00,
2013-07-26 06:46:00,48.2,46.8,30.09,NE,47,0.0,0.0,95,0.00,,,0.00,Wunderground v.1.15,2013-07-26 10:46:00,
2013-07-26 06:52:00,49.1,47.7,30.09,NE,47,0.0,0.0,95,0.00,,,0.00,Wunderground v.1.15,2013-07-26 10:52:00,
2013-07-26 06:58:00,49.5,48.1,30.09,SSE,151,0.0,2.0,95,0.00,,,0.00,Wunderground v.1.15,2013-07-26 10:58:00,
2013-07-26 07:04:00,49.9,48.8,30.09,SSE,165,2.0,2.0,96,0.00,,,0.00,Wunderground v.1.15,2013-07-26 11:04:00,
2013-07-26 07:10:00,50.1,48.7,30.10,South,171,1.0,1.0,95,0.00,,,0.00,Wunderground v.1.15,2013-07-26 11:10:00,
2013-07-26 07:16:00,50.3,49.2,30.10,South,185,0.0,3.0,96,0.00,,,0.00,Wunderground v.1.15,2013-07-26 11:16:00,
2013-07-26 07:22:00,50.9,49.5,30.10,South,185,1.0,3.0,95,0.00,,,0.00,Wunderground v.1.15,2013-07-26 11:22:00,
2013-07-26 07:28:00,51.9,50.8,30.10,SSW,200,1.0,3.0,96,0.00,,,0.00,Wunderground v.1.15,2013-07-26 11:28:00,
2013-07-26 07:34:00,52.7,51.6,30.10,SSW,199,1.0,1.0,96,0.00,,,0.00,Wunderground v.1.15,2013-07-26 11:34:00,
2013-07-26 07:40:00,53.2,52.1,30.10,SSW,202,1.0,4.0,96,0.00,,,0.00,Wunderground v.1.15,2013-07-26 11:40:00,
2013-07-26 07:46:00,53.2,51.8,30.10,SSW,201,1.0,4.0,95,0.00,,,0.00,Wunderground v.1.15,2013-07-26 11:46:00,
2013-07-26 07:52:00,53.2,51.8,30.10,SSW,199,1.0,1.0,95,0.00,,,0.00,Wunderground v.1.15,2013-07-26 11:52:00,
2013-07-26 07:58:00,53.5,51.8,30.11,SSW,198,1.0,3.0,94,0.00,,,0.00,Wunderground v.1.15,2013-07-26 11:58:00,
2013-07-26 08:04:00,54.3,52.3,30.11,SSW,198,2.0,2.0,93,0.00,,,0.00,Wunderground v.1.15,2013-07-26 12:04:00,
2013-07-26 08:10:00,54.4,51.8,30.11,SSW,198,1.0,1.0,91,0.00,,,0.01,Wunderground v.1.15,2013-07-26 12:10:00,
2013-07-26 08:16:00,55.0,52.1,30.11,SSW,198,1.0,1.0,90,0.00,,,0.01,Wunderground v.1.15,2013-07-26 12:16:00,
2013-07-26 08:22:00,55.7,52.8,30.11,SSW,198,0.0,1.0,90,0.00,,,0.01,Wunderground v.1.15,2013-07-26 12:22:00,
2013-07-26 08:28:00,56.4,53.2,30.11,SSW,198,0.0,1.0,89,0.00,,,0.01,Wunderground v.1.15,2013-07-26 12:28:00,
2013-07-26 08:34:00,57.5,54.3,30.11,SSW,196,0.0,2.0,89,0.00,,,0.01,Wunderground v.1.15,2013-07-26 12:34:00,
2013-07-26 08:40:00,60.2,56.3,30.11,SSW,197,1.0,1.0,87,0.00,,,0.01,Wunderground v.1.15,2013-07-26 12:40:00,
2013-07-26 08:46:00,60.7,56.2,30.11,SSW,198,1.0,1.0,85,0.00,,,0.01,Wunderground v.1.15,2013-07-26 12:46:00,
2013-07-26 08:52:00,60.9,56.7,30.11,SSW,198,1.0,1.0,86,0.00,,,0.01,Wunderground v.1.15,2013-07-26 12:52:00,
2013-07-26 08:58:00,62.0,57.4,30.11,SSW,193,1.0,3.0,85,0.00,,,0.01,Wunderground v.1.15,2013-07-26 12:58:00,
2013-07-26 09:04:00,62.9,58.3,30.10,SE,146,1.0,1.0,85,0.00,,,0.01,Wunderground v.1.15,2013-07-26 13:04:00,
2013-07-26 09:10:00,63.9,58.3,30.10,SE,146,0.0,0.0,82,0.00,,,0.01,Wunderground v.1.15,2013-07-26 13:10:00,
2013-07-26 09:16:00,64.3,58.3,30.10,SE,146,0.0,0.0,81,0.00,,,0.01,Wunderground v.1.15,2013-07-26 13:16:00,
2013-07-26 09:22:00,64.5,58.9,30.10,SSE,154,0.0,1.0,82,0.00,,,0.01,Wunderground v.1.15,2013-07-26 13:22:00,
2013-07-26 09:28:00,66.5,59.8,30.10,South,174,0.0,1.0,79,0.00,,,0.01,Wunderground v.1.15,2013-07-26 13:28:00,
2013-07-26 09:34:00,67.3,60.6,30.10,South,174,0.0,1.0,79,0.00,,,0.01,Wunderground v.1.15,2013-07-26 13:34:00,
2013-07-26 09:40:00,68.3,60.1,30.10,SSW,194,1.0,1.0,75,0.00,,,0.01,Wunderground v.1.15,2013-07-26 13:40:00,
2013-07-26 09:46:00,68.5,59.9,30.10,SSW,194,1.0,1.0,74,0.00,,,0.01,Wunderground v.1.15,2013-07-26 13:46:00,
2013-07-26 09:52:00,68.7,60.5,30.10,South,189,0.0,0.0,75,0.00,,,0.01,Wunderground v.1.15,2013-07-26 13:52:00,
2013-07-26 09:58:00,68.6,59.6,30.10,SW,216,1.0,2.0,73,0.00,,,0.01,Wunderground v.1.15,2013-07-26 13:58:00,
2013-07-26 10:04:00,69.3,60.3,30.10,SSW,193,1.0,6.0,73,0.00,,,0.01,Wunderground v.1.15,2013-07-26 14:04:00,
2013-07-26 10:10:00,70.7,60.8,30.10,SSW,193,2.0,4.0,71,0.00,,,0.01,Wunderground v.1.15,2013-07-26 14:10:00,
2013-07-26 10:16:00,70.4,59.3,30.09,WSW,248,1.0,4.0,68,0.00,,,0.01,Wunderground v.1.15,2013-07-26 14:16:00,
2013-07-26 10:22:00,70.3,59.2,30.09,WSW,238,1.0,2.0,68,0.00,,,0.01,Wunderground v.1.15,2013-07-26 14:22:00,
2013-07-26 10:28:00,70.9,61.0,30.09,SW,236,2.0,2.0,71,0.00,,,0.01,Wunderground v.1.15,2013-07-26 14:28:00,
2013-07-26 10:34:00,71.9,59.5,30.09,SW,220,2.0,3.0,65,0.00,,,0.01,Wunderground v.1.15,2013-07-26 14:34:00,
2013-07-26 10:40:00,71.1,59.6,30.09,SW,228,2.0,6.0,67,0.00,,,0.01,Wunderground v.1.15,2013-07-26 14:40:00,
2013-07-26 10:48:00,71.8,59.4,30.09,SW,226,3.0,6.0,65,0.00,,,0.01,Wunderground v.1.15,2013-07-26 14:48:00,
2013-07-26 10:54:00,72.0,60.0,30.08,SW,227,2.0,4.0,66,0.00,,,0.01,Wunderground v.1.15,2013-07-26 14:54:00,
2013-07-26 11:00:00,73.2,59.8,30.08,SW,225,2.0,2.0,63,0.00,,,0.01,Wunderground v.1.15,2013-07-26 15:00:00,
2013-07-26 11:06:00,73.0,59.7,30.09,SW,223,2.0,2.0,63,0.00,,,0.01,Wunderground v.1.15,2013-07-26 15:06:00,
2013-07-26 11:12:00,73.1,58.4,30.08,SSW,195,3.0,5.0,60,0.00,,,0.01,Wunderground v.1.15,2013-07-26 15:12:00,
2013-07-26 11:18:00,73.7,57.5,30.08,WSW,258,4.0,5.0,57,0.00,,,0.01,Wunderground v.1.15,2013-07-26 15:18:00,
2013-07-26 11:24:00,74.1,59.8,30.08,SW,232,3.0,3.0,61,0.00,,,0.01,Wunderground v.1.15,2013-07-26 15:24:00,
2013-07-26 11:30:00,74.5,58.3,30.09,SSE,163,2.0,5.0,57,0.00,,,0.01,Wunderground v.1.15,2013-07-26 15:30:00,
2013-07-26 11:36:00,75.5,59.7,30.09,SSE,149,3.0,6.0,58,0.00,,,0.01,Wunderground v.1.15,2013-07-26 15:36:00,
2013-07-26 11:42:00,74.8,58.5,30.08,SSE,149,2.0,2.0,57,0.00,,,0.01,Wunderground v.1.15,2013-07-26 15:42:00,
2013-07-26 11:48:00,75.0,59.7,30.08,SSE,150,0.0,2.0,59,0.00,,,0.01,Wunderground v.1.15,2013-07-26 15:48:00,
2013-07-26 11:54:00,74.4,59.1,30.08,South,187,0.0,4.0,59,0.00,,,0.01,Wunderground v.1.15,2013-07-26 15:54:00,
2013-07-26 12:00:00,74.6,59.3,30.08,SSW,213,1.0,4.0,59,0.00,,,0.01,Wunderground v.1.15,2013-07-26 16:00:00,
2013-07-26 12:06:00,75.1,58.3,30.08,SW,217,3.0,4.0,56,0.00,,,0.01,Wunderground v.1.15,2013-07-26 16:06:00,
2013-07-26 12:12:00,75.5,59.2,30.08,SSW,198,4.0,5.0,57,0.00,,,0.01,Wunderground v.1.15,2013-07-26 16:12:00,
2013-07-26 12:18:00,76.6,58.7,30.08,ESE,109,2.0,5.0,54,0.00,,,0.01,Wunderground v.1.15,2013-07-26 16:18:00,
2013-07-26 12:24:00,74.3,57.1,30.08,ENE,74,2.0,3.0,55,0.00,,,0.01,Wunderground v.1.15,2013-07-26 16:24:00,
2013-07-26 12:30:00,75.8,60.4,30.08,SSE,148,2.0,4.0,59,0.00,,,0.01,Wunderground v.1.15,2013-07-26 16:30:00,
2013-07-26 12:36:00,78.7,60.7,30.08,South,186,4.0,8.0,54,0.00,,,0.01,Wunderground v.1.15,2013-07-26 16:36:00,
2013-07-26 12:42:00,77.9,58.3,30.08,SSE,157,5.0,5.0,51,0.00,,,0.01,Wunderground v.1.15,2013-07-26 16:42:00,
2013-07-26 12:48:00,78.6,61.1,30.07,SSE,152,3.0,5.0,55,0.00,,,0.01,Wunderground v.1.15,2013-07-26 16:48:00,
2013-07-26 12:54:00,76.9,57.9,30.07,ENE,78,3.0,5.0,52,0.00,,,0.01,Wunderground v.1.15,2013-07-26 16:54:00,
2013-07-26 13:00:00,77.8,61.3,30.07,South,169,4.0,4.0,57,0.00,,,0.01,Wunderground v.1.15,2013-07-26 17:00:00,
2013-07-26 13:06:00,78.3,59.2,30.07,South,177,4.0,5.0,52,0.00,,,0.01,Wunderground v.1.15,2013-07-26 17:06:00,
2013-07-26 13:12:00,77.0,59.6,30.07,SSE,168,2.0,2.0,55,0.00,,,0.01,Wunderground v.1.15,2013-07-26 17:12:00,
2013-07-26 13:18:00,75.5,57.2,30.06,NW,306,1.0,2.0,53,0.00,,,0.01,Wunderground v.1.15,2013-07-26 17:18:00,
2013-07-26 13:24:00,75.8,58.5,30.06,WSW,250,2.0,9.0,55,0.00,,,0.01,Wunderground v.1.15,2013-07-26 17:24:00,
2013-07-26 13:30:00,75.8,60.4,30.06,NW,323,4.0,4.0,59,0.00,,,0.01,Wunderground v.1.15,2013-07-26 17:30:00,
2013-07-26 13:36:00,76.9,60.0,30.06,SW,215,2.0,6.0,56,0.00,,,0.01,Wunderground v.1.15,2013-07-26 17:36:00,
2013-07-26 13:42:00,78.2,61.2,30.06,South,190,3.0,7.0,56,0.00,,,0.01,Wunderground v.1.15,2013-07-26 17:42:00,
2013-07-26 13:48:00,78.8,60.7,30.06,SSW,209,4.0,7.0,54,0.00,,,0.01,Wunderground v.1.15,2013-07-26 17:48:00,
2013-07-26 13:54:00,79.2,61.1,30.06,South,187,3.0,5.0,54,0.00,,,0.01,Wunderground v.1.15,2013-07-26 17:54:00,
2013-07-26 14:00:00,79.6,59.9,30.05,SSW,198,3.0,6.0,51,0.00,,,0.01,Wunderground v.1.15,2013-07-26 18:00:00,
2013-07-26 14:08:00,79.1,60.0,30.05,SE,126,3.0,6.0,52,0.00,,,0.01,Wunderground v.1.15,2013-07-26 18:08:00,
2013-07-26 14:14:00,78.8,59.7,30.05,South,176,2.0,5.0,52,0.00,,,0.01,Wunderground v.1.15,2013-07-26 18:14:00,
2013-07-26 14:20:00,78.8,58.0,30.05,South,169,2.0,2.0,49,0.00,,,0.01,Wunderground v.1.15,2013-07-26 18:20:00,
2013-07-26 14:26:00,77.3,59.9,30.05,SSW,198,1.0,2.0,55,0.00,,,0.01,Wunderground v.1.15,2013-07-26 18:26:00,
2013-07-26 14:32:00,78.7,59.0,30.05,SSW,198,3.0,4.0,51,0.00,,,0.01,Wunderground v.1.15,2013-07-26 18:32:00,
2013-07-26 14:38:00,79.5,59.2,30.05,South,174,3.0,4.0,50,0.00,,,0.01,Wunderground v.1.15,2013-07-26 18:38:00,
2013-07-26 14:44:00,79.2,60.1,30.04,ESE,113,2.0,4.0,52,0.00,,,0.01,Wunderground v.1.15,2013-07-26 18:44:00,
2013-07-26 14:50:00,78.7,59.0,30.04,South,183,3.0,9.0,51,0.00,,,0.01,Wunderground v.1.15,2013-07-26 18:50:00,
2013-07-26 14:56:00,81.0,61.7,30.04,South,178,5.0,9.0,52,0.00,,,0.01,Wunderground v.1.15,2013-07-26 18:56:00,
2013-07-26 15:02:00,81.2,59.6,30.04,SSE,162,4.0,10.0,48,0.00,,,0.01,Wunderground v.1.15,2013-07-26 19:02:00,
2013-07-26 15:08:00,79.6,59.3,30.04,SSW,196,3.0,10.0,50,0.00,,,0.01,Wunderground v.1.15,2013-07-26 19:08:00,
2013-07-26 15:14:00,80.6,61.3,30.03,SW,233,3.0,7.0,52,0.00,,,0.01,Wunderground v.1.15,2013-07-26 19:14:00,
2013-07-26 15:20:00,80.2,60.4,30.03,SW,222,4.0,4.0,51,0.00,,,0.01,Wunderground v.1.15,2013-07-26 19:20:00,
2013-07-26 15:26:00,79.4,59.7,30.03,SW,220,2.0,4.0,51,0.00,,,0.01,Wunderground v.1.15,2013-07-26 19:26:00,
2013-07-26 15:32:00,80.3,58.8,30.03,SW,233,2.0,4.0,48,0.00,,,0.01,Wunderground v.1.15,2013-07-26 19:32:00,
2013-07-26 15:38:00,80.9,61.1,30.03,SSE,161,4.0,9.0,51,0.00,,,0.01,Wunderground v.1.15,2013-07-26 19:38:00,
2013-07-26 15:44:00,80.8,59.9,30.02,SSW,213,6.0,9.0,49,0.00,,,0.01,Wunderground v.1.15,2013-07-26 19:44:00,
2013-07-26 15:50:00,81.0,58.9,30.03,SSE,148,4.0,4.0,47,0.00,,,0.01,Wunderground v.1.15,2013-07-26 19:50:00,
2013-07-26 15:56:00,80.0,59.1,30.02,West,261,4.0,6.0,49,0.00,,,0.01,Wunderground v.1.15,2013-07-26 19:56:00,
2013-07-26 16:02:00,78.8,59.7,30.02,WNW,292,3.0,3.0,52,0.00,,,0.01,Wunderground v.1.15,2013-07-26 20:02:00,
2013-07-26 16:08:00,81.8,59.6,30.02,SE,134,2.0,7.0,47,0.00,,,0.01,Wunderground v.1.15,2013-07-26 20:08:00,
2013-07-26 16:14:00,81.9,60.3,30.01,East,100,4.0,7.0,48,0.00,,,0.01,Wunderground v.1.15,2013-07-26 20:14:00,
2013-07-26 16:20:00,80.9,59.4,30.01,SW,228,3.0,3.0,48,0.00,,,0.01,Wunderground v.1.15,2013-07-26 20:20:00,
2013-07-26 16:26:00,80.1,56.8,30.01,West,270,4.0,7.0,45,0.00,,,0.01,Wunderground v.1.15,2013-07-26 20:26:00,
2013-07-26 16:32:00,80.3,59.4,30.01,South,176,3.0,8.0,49,0.00,,,0.01,Wunderground v.1.15,2013-07-26 20:32:00,
2013-07-26 16:38:00,80.8,59.9,30.01,SE,134,3.0,8.0,49,0.00,,,0.01,Wunderground v.1.15,2013-07-26 20:38:00,
2013-07-26 16:44:00,80.8,56.2,30.01,ESE,113,3.0,6.0,43,0.00,,,0.01,Wunderground v.1.15,2013-07-26 20:44:00,
2013-07-26 16:50:00,81.4,58.6,30.01,SSE,148,2.0,2.0,46,0.00,,,0.01,Wunderground v.1.15,2013-07-26 20:50:00,
2013-07-26 16:56:00,81.6,59.4,30.01,SE,144,3.0,4.0,47,0.00,,,0.01,Wunderground v.1.15,2013-07-26 20:56:00,
2013-07-26 17:02:00,82.1,61.6,30.01,South,169,3.0,6.0,50,0.00,,,0.01,Wunderground v.1.15,2013-07-26 21:02:00,
2013-07-26 17:08:00,81.2,58.5,30.01,SW,219,4.0,6.0,46,0.00,,,0.01,Wunderground v.1.15,2013-07-26 21:08:00,
2013-07-26 17:14:00,81.3,60.3,30.01,SW,221,4.0,5.0,49,0.00,,,0.01,Wunderground v.1.15,2013-07-26 21:14:00,
2013-07-26 17:20:00,81.4,59.2,30.01,South,181,3.0,3.0,47,0.00,,,0.01,Wunderground v.1.15,2013-07-26 21:20:00,
2013-07-26 17:26:00,81.1,59.0,30.01,SSW,210,2.0,3.0,47,0.00,,,0.01,Wunderground v.1.15,2013-07-26 21:26:00,
2013-07-26 17:32:00,81.8,59.6,30.01,SE,137,2.0,5.0,47,0.00,,,0.01,Wunderground v.1.15,2013-07-26 21:32:00,
2013-07-26 17:38:00,81.2,59.1,30.01,SSW,193,3.0,8.0,47,0.00,,,0.01,Wunderground v.1.15,2013-07-26 21:38:00,
2013-07-26 17:44:00,80.7,58.6,30.01,South,175,5.0,6.0,47,0.00,,,0.01,Wunderground v.1.15,2013-07-26 21:44:00,
2013-07-26 17:50:00,80.9,61.1,30.01,South,174,3.0,3.0,51,0.00,,,0.01,Wunderground v.1.15,2013-07-26 21:50:00,
2013-07-26 17:56:00,81.0,58.3,30.01,SE,135,3.0,7.0,46,0.00,,,0.01,Wunderground v.1.15,2013-07-26 21:56:00,
2013-07-26 18:02:00,80.5,60.1,30.01,SSE,155,5.0,5.0,50,0.00,,,0.01,Wunderground v.1.15,2013-07-26 22:02:00,
2013-07-26 18:08:00,80.5,59.0,30.01,SSE,163,3.0,5.0,48,0.00,,,0.01,Wunderground v.1.15,2013-07-26 22:08:00,
2013-07-26 18:14:00,80.9,59.9,30.00,SSE,159,3.0,3.0,49,0.00,,,0.01,Wunderground v.1.15,2013-07-26 22:14:00,
2013-07-26 18:20:00,81.3,58.5,30.00,SE,138,3.0,3.0,46,0.00,,,0.01,Wunderground v.1.15,2013-07-26 22:20:00,
2013-07-26 18:26:00,81.1,59.6,30.00,SW,215,2.0,3.0,48,0.00,,,0.01,Wunderground v.1.15,2013-07-26 22:26:00,
2013-07-26 18:32:00,80.7,58.6,30.00,South,178,1.0,4.0,47,0.00,,,0.01,Wunderground v.1.15,2013-07-26 22:32:00,
2013-07-26 18:38:00,80.5,60.1,30.00,South,177,1.0,4.0,50,0.00,,,0.01,Wunderground v.1.15,2013-07-26 22:38:00,
2013-07-26 18:44:00,80.5,59.0,30.00,South,180,1.0,8.0,48,0.00,,,0.01,Wunderground v.1.15,2013-07-26 22:44:00,
2013-07-26 18:50:00,80.2,58.7,30.00,SE,129,3.0,5.0,48,0.00,,,0.01,Wunderground v.1.15,2013-07-26 22:50:00,
2013-07-26 18:56:00,80.1,60.3,30.00,SE,142,3.0,5.0,51,0.00,,,0.01,Wunderground v.1.15,2013-07-26 22:56:00,
2013-07-26 19:02:00,79.8,60.6,30.00,SE,145,2.0,3.0,52,0.00,,,0.01,Wunderground v.1.15,2013-07-26 23:02:00,
2013-07-26 19:08:00,80.0,60.8,30.00,SE,145,0.0,3.0,52,0.00,,,0.01,Wunderground v.1.15,2013-07-26 23:08:00,
2013-07-26 19:14:00,80.0,61.3,30.00,SE,146,0.0,0.0,53,0.00,,,0.01,Wunderground v.1.15,2013-07-26 23:14:00,
2013-07-26 19:20:00,79.1,60.5,30.00,South,182,1.0,3.0,53,0.00,,,0.01,Wunderground v.1.15,2013-07-26 23:20:00,
2013-07-26 19:26:00,78.9,60.8,30.00,South,181,1.0,3.0,54,0.00,,,0.01,Wunderground v.1.15,2013-07-26 23:26:00,
2013-07-26 19:32:00,77.8,61.3,30.00,South,181,0.0,0.0,57,0.00,,,0.01,Wunderground v.1.15,2013-07-26 23:32:00,
2013-07-26 19:38:00,77.1,61.2,30.00,South,181,0.0,2.0,58,0.00,,,0.01,Wunderground v.1.15,2013-07-26 23:38:00,
2013-07-26 19:44:00,76.1,61.7,30.00,South,181,0.0,0.0,61,0.00,,,0.01,Wunderground v.1.15,2013-07-26 23:44:00,
2013-07-26 19:50:00,75.1,63.0,30.00,South,181,0.0,0.0,66,0.00,,,0.01,Wunderground v.1.15,2013-07-26 23:50:00,
2013-07-26 19:56:00,73.8,62.6,30.00,South,181,0.0,0.0,68,0.00,,,0.01,Wunderground v.1.15,2013-07-26 23:56:00,
2013-07-26 20:02:00,72.4,62.5,30.00,South,182,0.0,0.0,71,0.00,,,0.01,Wunderground v.1.15,2013-07-27 00:02:00,
2013-07-26 20:08:00,72.0,62.1,30.00,South,182,0.0,0.0,71,0.00,,,0.01,Wunderground v.1.15,2013-07-27 00:08:00,
2013-07-26 20:14:00,71.7,62.2,30.00,South,182,0.0,0.0,72,0.00,,,0.01,Wunderground v.1.15,2013-07-27 00:14:00,
2013-07-26 20:20:00,70.9,61.8,30.00,South,182,0.0,2.0,73,0.00,,,0.01,Wunderground v.1.15,2013-07-27 00:20:00,
2013-07-26 20:26:00,70.0,61.3,30.01,SSW,194,1.0,2.0,74,0.00,,,0.01,Wunderground v.1.15,2013-07-27 00:26:00,
2013-07-26 20:32:00,69.3,61.4,30.00,SSW,194,0.0,1.0,76,0.00,,,0.01,Wunderground v.1.15,2013-07-27 00:32:00,
2013-07-26 20:38:00,68.5,61.0,30.00,SSW,194,0.0,1.0,77,0.00,,,0.01,Wunderground v.1.15,2013-07-27 00:38:00,
2013-07-26 20:44:00,67.9,60.4,30.01,SSW,194,0.0,0.0,77,0.00,,,0.01,Wunderground v.1.15,2013-07-27 00:44:00,
2013-07-26 20:50:00,67.3,60.6,30.00,SSW,194,0.0,0.0,79,0.00,,,0.01,Wunderground v.1.15,2013-07-27 00:50:00,
2013-07-26 20:56:00,66.7,60.3,30.00,SSW,194,0.0,0.0,80,0.00,,,0.01,Wunderground v.1.15,2013-07-27 00:56:00,
2013-07-26 21:02:00,66.1,59.7,30.01,SSW,194,0.0,0.0,80,0.00,,,0.01,Wunderground v.1.15,2013-07-27 01:02:00,
2013-07-26 21:08:00,65.6,59.6,30.00,SSW,194,0.0,0.0,81,0.00,,,0.01,Wunderground v.1.15,2013-07-27 01:08:00,
2013-07-26 21:14:00,65.0,59.4,30.01,SSW,194,0.0,0.0,82,0.00,,,0.01,Wunderground v.1.15,2013-07-27 01:14:00,
2013-07-26 21:20:00,64.4,59.1,30.01,SSW,194,0.0,0.0,83,0.00,,,0.01,Wunderground v.1.15,2013-07-27 01:20:00,
2013-07-26 21:26:00,63.7,58.8,30.01,SSW,194,0.0,0.0,84,0.00,,,0.01,Wunderground v.1.15,2013-07-27 01:26:00,
2013-07-26 21:32:00,63.2,58.3,30.01,SSW,194,0.0,0.0,84,0.00,,,0.01,Wunderground v.1.15,2013-07-27 01:32:00,
2013-07-26 21:38:00,62.7,58.1,30.01,SSW,194,0.0,0.0,85,0.00,,,0.01,Wunderground v.1.15,2013-07-27 01:38:00,
2013-07-26 21:44:00,62.2,57.6,30.01,SSW,194,0.0,0.0,85,0.00,,,0.01,Wunderground v.1.15,2013-07-27 01:44:00,
2013-07-26 21:50:00,61.5,57.3,30.01,SSW,194,0.0,0.0,86,0.00,,,0.01,Wunderground v.1.15,2013-07-27 01:50:00,
2013-07-26 21:56:00,60.7,56.8,30.01,SSW,194,0.0,0.0,87,0.00,,,0.01,Wunderground v.1.15,2013-07-27 01:56:00,
2013-07-26 22:02:00,60.2,56.3,30.01,SSW,194,0.0,0.0,87,0.00,,,0.01,Wunderground v.1.15,2013-07-27 02:02:00,
2013-07-26 22:08:00,59.6,56.0,30.01,SSW,194,0.0,0.0,88,0.00,,,0.01,Wunderground v.1.15,2013-07-27 02:08:00,
2013-07-26 22:14:00,59.2,55.6,30.02,SSW,194,0.0,2.0,88,0.00,,,0.01,Wunderground v.1.15,2013-07-27 02:14:00,
2013-07-26 22:20:00,59.0,55.4,30.02,SSW,194,0.0,0.0,88,0.00,,,0.01,Wunderground v.1.15,2013-07-27 02:20:00,
2013-07-26 22:26:00,58.7,55.2,30.02,SSW,194,0.0,0.0,88,0.00,,,0.01,Wunderground v.1.15,2013-07-27 02:26:00,
2013-07-26 22:32:00,58.3,54.8,30.02,SSW,194,0.0,0.0,88,0.00,,,0.01,Wunderground v.1.15,2013-07-27 02:32:00,
2013-07-26 22:38:00,58.0,54.8,30.02,SSW,194,0.0,0.0,89,0.00,,,0.01,Wunderground v.1.15,2013-07-27 02:38:00,
2013-07-26 22:44:00,57.7,54.5,30.02,SSW,194,0.0,0.0,89,0.00,,,0.01,Wunderground v.1.15,2013-07-27 02:44:00,
2013-07-26 22:50:00,57.4,54.5,30.02,SSW,194,0.0,0.0,90,0.00,,,0.01,Wunderground v.1.15,2013-07-27 02:50:00,
2013-07-26 22:56:00,57.2,54.0,30.02,SSW,194,0.0,0.0,89,0.00,,,0.01,Wunderground v.1.15,2013-07-27 02:56:00,
2013-07-26 23:02:00,57.0,54.1,30.02,SSW,194,0.0,0.0,90,0.00,,,0.01,Wunderground v.1.15,2013-07-27 03:02:00,
2013-07-26 23:08:00,56.8,53.9,30.02,SSW,194,0.0,0.0,90,0.00,,,0.01,Wunderground v.1.15,2013-07-27 03:08:00,
2013-07-26 23:14:00,56.4,53.2,30.02,SSW,194,0.0,0.0,89,0.00,,,0.01,Wunderground v.1.15,2013-07-27 03:14:00,
2013-07-26 23:16:00,56.3,53.4,30.02,SSW,194,0.0,0.0,90,0.00,,,0.01,Wunderground v.1.15,2013-07-27 03:16:00,
2013-07-26 23:22:00,56.2,53.3,30.02,SSW,194,0.0,0.0,90,0.00,,,0.01,Wunderground v.1.15,2013-07-27 03:22:00,
2013-07-26 23:28:00,56.1,53.2,30.03,SSW,194,0.0,2.0,90,0.00,,,0.01,Wunderground v.1.15,2013-07-27 03:28:00,
2013-07-26 23:34:00,56.0,53.1,30.03,SSW,194,0.0,0.0,90,0.00,,,0.01,Wunderground v.1.15,2013-07-27 03:34:00,
2013-07-26 23:40:00,55.8,53.2,30.02,SSW,194,0.0,0.0,91,0.00,,,0.01,Wunderground v.1.15,2013-07-27 03:40:00,
2013-07-26 23:46:00,55.7,53.1,30.02,SSW,194,0.0,0.0,91,0.00,,,0.01,Wunderground v.1.15,2013-07-27 03:46:00,
2013-07-26 23:52:00,55.5,52.9,30.02,SSW,194,0.0,0.0,91,0.00,,,0.01,Wunderground v.1.15,2013-07-27 03:52:00,
2013-07-26 23:58:00,55.3,52.7,30.02,SSW,194,0.0,0.0,91,0.00,,,0.01,Wunderground v.1.15,2013-07-27 03:58:00,